QPF
0.01 0.01 0.01 0.01 0.01 0.04 0.05 0.03 0.02 0.04 0.03 0.04 0.07 0.10 0.10 0.08 0.06 0.04 0.05 0.06 0.03 0.03 0.06 0.15 0.19 0.20 0.22 0.20 0.17 0.14 0.12 0.10 0.10 0.09 0.07 0.04 0.05 0.05 0.05 0.05 0.05 0.06 0.06 0.06 0.07 0.07 0.05 0.05 0.04
0.00 0.01 0.01 0.01 0.03 0.03 0.03 0.05 0.05 0.04 0.03 0.03 0.05 0.07 0.08 0.05 0.04 0.05 0.07 0.07 0.03 0.02 0.04 0.10 0.17 0.17 0.15 0.15 0.13 0.10 0.07 0.06 0.06 0.04 0.04 0.03 0.04 0.05 0.06 0.06 0.04 0.04 0.03 0.05 0.08 0.07 0.05 0.05 0.04
0.00 0.01 0.02 0.02 0.03 0.04 0.03 0.05 0.06 0.04 0.03 0.04 0.04 0.05 0.05 0.05 0.06 0.06 0.05 0.06 0.04 0.03 0.06 0.11 0.14 0.14 0.12 0.12 0.10 0.07 0.06 0.04 0.04 0.04 0.04 0.04 0.04 0.05 0.06 0.07 0.06 0.04 0.02 0.04 0.05 0.05 0.03 0.03 0.03
0.01 0.01 0.01 0.02 0.03 0.02 0.02 0.03 0.03 0.04 0.03 0.02 0.03 0.03 0.03 0.05 0.07 0.07 0.05 0.06 0.04 0.04 0.06 0.06 0.07 0.08 0.11 0.09 0.05 0.04 0.04 0.04 0.04 0.05 0.04 0.04 0.04 0.05 0.06 0.05 0.04 0.03 0.03 0.04 0.04 0.04 0.03 0.02 0.03
0.01 0.01 0.02 0.03 0.02 0.03 0.02 0.02 0.02 0.03 0.02 0.02 0.03 0.03 0.02 0.04 0.07 0.07 0.04 0.05 0.06 0.06 0.05 0.05 0.07 0.06 0.09 0.06 0.03 0.02 0.02 0.02 0.03 0.05 0.04 0.04 0.04 0.05 0.06 0.06 0.04 0.03 0.02 0.02 0.03 0.03 0.03 0.02 0.02
0.01 0.01 0.02 0.02 0.02 0.03 0.02 0.02 0.02 0.02 0.01 0.01 0.02 0.03 0.03 0.03 0.04 0.05 0.05 0.05 0.05 0.04 0.03 0.04 0.10 0.07 0.06 0.04 0.02 0.02 0.02 0.02 0.03 0.04 0.04 0.03 0.03 0.03 0.04 0.04 0.03 0.03 0.02 0.03 0.03 0.02 0.02 0.02 0.02
0.01 0.01 0.02 0.02 0.03 0.02 0.03 0.02 0.02 0.02 0.02 0.01 0.01 0.02 0.03 0.02 0.02 0.02 0.03 0.03 0.04 0.03 0.03 0.03 0.06 0.04 0.04 0.04 0.03 0.02 0.02 0.02 0.03 0.04 0.03 0.03 0.03 0.02 0.02 0.02 0.01 0.01 0.01 0.02 0.02 0.03 0.03 0.03 0.03
0.01 0.01 0.01 0.02 0.03 0.03 0.03 0.03 0.02 0.02 0.02 0.01 0.01 0.02 0.02 0.01 0.01 0.02 0.03 0.04 0.05 0.04 0.04 0.02 0.01 0.01 0.02 0.01 0.01 0.01 0.01 0.01 0.02 0.03 0.02 0.02 0.01 0.01 0.01 0.01 0.01 0.01 0.01 0.01 0.01 0.02 0.02 0.03 0.03
0.01 0.01 0.02 0.02 0.03 0.03 0.02 0.03 0.03 0.02 0.02 0.01 0.02 0.01 0.01 0.00 0.00 0.02 0.03 0.09 0.09 0.05 0.02 0.01 0.01 0.00 0.00 0.00 0.00 0.01 0.01 0.01 0.01 0.01 0.01 0.00 0.00 0.00 0.00 0.00 0.01 0.02 0.01 0.01 0.01 0.02 0.03 0.03 0.03
0.01 0.03 0.02 0.01 0.01 0.01 0.02 0.03 0.03 0.03 0.03 0.01 0.01 0.01 0.00 0.00 0.00 0.01 0.03 0.05 0.06 0.03 0.01 0.01 0.01 0.00 0.00 0.00 0.00 0.00 0.00 0.00 0.00 0.00 0.00 0.00 0.00 0.00 0.00 0.00 0.01 0.01 0.01 0.01 0.02 0.01 0.01 0.01 0.01
0.01 0.02 0.01 0.00 0.01 0.01 0.01 0.03 0.03 0.05 0.05 0.03 0.03 0.01 0.01 0.00 0.00 0.01 0.02 0.03 0.03 0.02 0.02 0.01 0.01 0.00 0.00 0.00 0.00 0.00 0.00 0.00 0.00 0.00 0.00 0.00 0.00 0.00 0.00 0.00 0.00 0.00 0.00 0.00 0.00 0.00 0.00 0.00 0.01
0.01 0.01 0.01 0.01 0.01 0.01 0.02 0.02 0.02 0.04 0.04 0.03 0.04 0.03 0.02 0.01 0.01 0.01 0.04 0.06 0.04 0.03 0.02 0.01 0.01 0.00 0.00 0.00 0.00 0.00 0.00 0.00 0.00 0.00 0.00 0.00 0.00 0.00 0.00 0.00 0.00 0.00 0.00 0.00 0.00 0.00 0.00 0.01 0.01
0.01 0.01 0.02 0.03 0.02 0.02 0.02 0.03 0.03 0.03 0.03 0.02 0.02 0.03 0.02 0.02 0.01 0.01 0.04 0.07 0.07 0.05 0.03 0.01 0.00 0.00 0.00 0.00 0.00 0.00 0.00 0.00 0.00 0.00 0.00 0.00 0.00 0.00 0.00 0.00 0.00 0.00 0.01 0.00 0.00 0.00 0.00 0.01 0.02
0.01 0.01 0.01 0.02 0.02 0.02 0.02 0.03 0.02 0.02 0.03 0.02 0.03 0.03 0.02 0.02 0.01 0.01 0.02 0.02 0.03 0.03 0.02 0.00 0.00 0.00 0.00 0.00 0.00 0.00 0.00 0.00 0.00 0.00 0.00 0.00 0.00 0.00 0.00 0.00 0.00 0.00 0.00 0.01 0.01 0.01 0.01 0.01 0.02
0.01 0.02 0.02 0.01 0.01 0.01 0.01 0.03 0.03 0.03 0.04 0.04 0.05 0.05 0.02 0.02 0.02 0.02 0.01 0.01 0.01 0.01 0.00 0.00 0.00 0.00 0.00 0.00 0.00 0.00 0.00 0.00 0.00 0.00 0.00 0.00 0.00 0.00 0.00 0.00 0.00 0.01 0.00 0.01 0.02 0.01 0.01 0.02 0.03
0.01 0.03 0.03 0.02 0.02 0.02 0.02 0.04 0.02 0.03 0.06 0.07 0.06 0.05 0.03 0.02 0.02 0.02 0.03 0.01 0.00 0.00 0.00 0.00 0.00 0.00 0.00 0.00 0.00 0.00 0.00 0.00 0.00 0.00 0.00 0.00 0.00 0.00 0.00 0.00 0.01 0.01 0.01 0.02 0.03 0.03 0.03 0.03 0.04
0.02 0.02 0.02 0.03 0.04 0.04 0.03 0.04 0.02 0.03 0.07 0.10 0.08 0.06 0.04 0.01 0.01 0.01 0.02 0.02 0.01 0.00 0.00 0.00 0.00 0.00 0.00 0.00 0.00 0.00 0.00 0.00 0.00 0.00 0.00 0.00 0.00 0.00 0.00 0.01 0.01 0.01 0.01 0.01 0.01 0.03 0.04 0.05 0.06
0.01 0.02 0.02 0.03 0.03 0.04 0.06 0.05 0.04 0.03 0.04 0.09 0.12 0.09 0.05 0.02 0.01 0.01 0.01 0.02 0.01 0.01 0.00 0.00 0.00 0.00 0.00 0.00 0.00 0.00 0.00 0.00 0.00 0.00 0.00 0.00 0.00 0.00 0.01 0.00 0.00 0.01 0.01 0.02 0.02 0.03 0.04 0.05 0.06
0.00 0.01 0.02 0.03 0.02 0.03 0.05 0.05 0.04 0.03 0.01 0.04 0.08 0.11 0.07 0.02 0.01 0.01 0.01 0.02 0.01 0.00 0.00 0.00 0.00 0.00 0.00 0.00 0.00 0.00 0.00 0.00 0.00 0.00 0.00 0.00 0.00 0.00 0.00 0.00 0.00 0.01 0.01 0.01 0.02 0.04 0.04 0.03 0.04
0.00 0.01 0.02 0.03 0.01 0.02 0.03 0.03 0.03 0.03 0.03 0.03 0.05 0.08 0.07 0.02 0.01 0.00 0.00 0.02 0.02 0.00 0.00 0.00 0.00 0.00 0.00 0.00 0.00 0.00 0.00 0.00 0.00 0.00 0.00 0.00 0.00 0.00 0.00 0.00 0.00 0.01 0.01 0.02 0.03 0.03 0.03 0.02 0.03
0.00 0.01 0.01 0.02 0.02 0.02 0.02 0.03 0.04 0.03 0.03 0.02 0.03 0.05 0.05 0.01 0.01 0.00 0.00 0.00 0.01 0.00 0.00 0.00 0.00 0.00 0.00 0.00 0.00 0.00 0.00 0.00 0.00 0.00 0.00 0.00 0.00 0.00 0.01 0.01 0.01 0.00 0.01 0.01 0.01 0.01 0.02 0.02 0.02
0.01 0.01 0.01 0.01 0.02 0.03 0.02 0.03 0.04 0.04 0.02 0.02 0.02 0.03 0.02 0.01 0.01 0.01 0.00 0.00 0.00 0.00 0.00 0.00 0.00 0.00 0.00 0.00 0.00 0.00 0.00 0.00 0.00 0.00 0.00 0.00 0.00 0.00 0.01 0.01 0.01 0.01 0.01 0.01 0.01 0.01 0.01 0.02 0.02
0.00 0.01 0.01 0.01 0.02 0.02 0.02 0.02 0.02 0.03 0.02 0.01 0.01 0.02 0.01 0.02 0.01 0.01 0.00 0.00 0.00 0.00 0.00 0.00 0.00 0.00 0.00 0.00 0.00 0.00 0.00 0.00 0.00 0.00 0.00 0.00 0.00 0.00 0.01 0.00 0.00 0.01 0.00 0.01 0.01 0.01 0.01 0.01 0.02
0.00 0.01 0.02 0.02 0.02 0.02 0.01 0.01 0.01 0.01 0.01 0.01 0.01 0.01 0.01 0.01 0.00 0.00 0.00 0.00 0.00 0.00 0.00 0.00 0.00 0.00 0.00 0.00 0.00 0.00 0.00 0.00 0.00 0.00 0.00 0.00 0.00 0.00 0.00 0.00 0.00 0.00 0.00 0.01 0.01 0.01 0.02 0.01 0.01
0.00 0.01 0.01 0.01 0.01 0.01 0.01 0.01 0.01 0.00 0.00 0.01 0.01 0.01 0.01 0.00 0.01 0.01 0.01 0.00 0.00 0.00 0.00 0.00 0.00 0.00 0.00 0.00 0.00 0.00 0.00 0.00 0.00 0.00 0.00 0.00 0.00 0.00 0.00 0.00 0.00 0.00 0.00 0.00 0.00 0.01 0.02 0.01 0.01
0.01 0.01 0.01 0.01 0.01 0.00 0.01 0.01 0.00 0.00 0.00 0.00 0.00 0.01 0.01 0.01 0.01 0.01 0.01 0.00 0.00 0.00 0.00 0.00 0.00 0.00 0.00 0.00 0.00 0.00 0.00 0.00 0.00 0.00 0.00 0.00 0.00 0.00 0.00 0.00 0.00 0.00 0.00 0.00 0.01 0.01 0.01 0.01 0.01
0.01 0.01 0.00 0.00 0.00 0.01 0.01 0.00 0.00 0.00 0.00 0.00 0.00 0.00 0.01 0.00 0.01 0.01 0.00 0.00 0.00 0.00 0.00 0.00 0.00 0.00 0.00 0.00 0.00 0.00 0.00 0.00 0.00 0.00 0.00 0.00 0.00 0.00 0.00 0.00 0.00 0.00 0.00 0.00 0.00 0.01 0.01 0.01 0.00
0.01 0.01 0.00 0.01 0.01 0.01 0.01 0.01 0.00 0.00 0.00 0.00 0.00 0.00 0.00 0.00 0.00 0.01 0.01 0.00 0.00 0.00 0.00 0.00 0.00 0.00 0.00 0.00 0.00 0.00 0.00 0.00 0.00 0.00 0.00 0.00 0.00 0.00 0.00 0.00 0.00 0.00 0.00 0.00 0.00 0.01 0.01 0.00 0.00
0.00 0.00 0.00 0.01 0.01 0.01 0.01 0.01 0.00 0.00 0.00 0.00 0.00 0.00 0.00 0.00 0.01 0.01 0.01 0.00 0.00 0.00 0.00 0.00 0.00 0.00 0.00 0.00 0.00 0.00 0.00 0.00 0.00 0.00 0.00 0.00 0.00 0.00 0.00 0.00 0.00 0.00 0.00 0.00 0.00 0.00 0.00 0.01 0.01
0.00 0.00 0.00 0.01 0.01 0.01 0.01 0.01 0.00 0.00 0.00 0.00 0.00 0.00 0.00 0.00 0.01 0.01 0.01 0.01 0.00 0.00 0.00 0.00 0.00 0.00 0.00 0.00 0.00 0.00 0.00 0.00 0.00 0.00 0.00 0.00 0.00 0.00 0.00 0.00 0.00 0.00 0.00 0.00 0.00 0.00 0.00 0.01 0.01
MSLP
1010.46 1010.99 1011.69 1012.45 1013.14 1013.69 1014.03 1014.20 1014.24 1014.23 1014.26 1014.38 1014.60 1014.91 1015.25 1015.55 1015.75 1015.80 1015.70 1015.46 1015.13 1014.78 1014.46 1014.21 1014.04 1013.97 1013.97 1014.02 1014.09 1014.18 1014.27 1014.38 1014.50 1014.64 1014.78 1014.92 1015.03 1015.12 1015.16 1015.18 1015.18 1015.18 1015.22 1015.29 1015.40 1015.53 1015.67 1015.80 1015.88
1010.63 1011.29 1012.10 1012.93 1013.65 1014.17 1014.45 1014.51 1014.41 1014.27 1014.17 1014.18 1014.34 1014.64 1015.00 1015.37 1015.66 1015.81 1015.81 1015.66 1015.42 1015.12 1014.83 1014.59 1014.42 1014.33 1014.30 1014.32 1014.37 1014.43 1014.51 1014.61 1014.72 1014.86 1015.00 1015.14 1015.26 1015.34 1015.38 1015.39 1015.39 1015.39 1015.43 1015.51 1015.62 1015.77 1015.91 1016.02 1016.09
1010.94 1011.71 1012.59 1013.45 1014.15 1014.62 1014.81 1014.77 1014.57 1014.31 1014.12 1014.06 1014.18 1014.45 1014.83 1015.23 1015.58 1015.80 1015.87 1015.80 1015.61 1015.38 1015.13 1014.93 1014.78 1014.70 1014.68 1014.69 1014.72 1014.77 1014.83 1014.91 1015.02 1015.15 1015.29 1015.42 1015.53 1015.61 1015.65 1015.66 1015.66 1015.67 1015.72 1015.81 1015.93 1016.08 1016.22 1016.32 1016.36
1011.40 1012.23 1013.14 1013.97 1014.62 1015.01 1015.12 1014.98 1014.70 1014.37 1014.12 1014.03 1014.13 1014.39 1014.77 1015.19 1015.55 1015.81 1015.91 1015.89 1015.76 1015.57 1015.38 1015.23 1015.13 1015.08 1015.07 1015.09 1015.13 1015.16 1015.21 1015.28 1015.36 1015.47 1015.60 1015.72 1015.83 1015.91 1015.95 1015.97 1015.98 1016.01 1016.07 1016.17 1016.31 1016.45 1016.58 1016.67 1016.68
1011.96 1012.81 1013.69 1014.46 1015.02 1015.32 1015.33 1015.13 1014.80 1014.45 1014.19 1014.10 1014.21 1014.48 1014.86 1015.27 1015.63 1015.88 1015.99 1015.98 1015.88 1015.74 1015.60 1015.50 1015.45 1015.45 1015.47 1015.51 1015.55 1015.58 1015.61 1015.65 1015.71 1015.80 1015.90 1016.02 1016.12 1016.21 1016.26 1016.29 1016.32 1016.37 1016.44 1016.56 1016.70 1016.84 1016.96 1017.02 1017.01
1012.57 1013.39 1014.20 1014.87 1015.32 1015.51 1015.45 1015.20 1014.86 1014.53 1014.32 1014.27 1014.41 1014.71 1015.09 1015.48 1015.81 1016.03 1016.12 1016.10 1016.00 1015.89 1015.79 1015.74 1015.74 1015.78 1015.85 1015.91 1015.94 1015.96 1015.97 1015.98 1016.01 1016.07 1016.16 1016.27 1016.37 1016.46 1016.53 1016.59 1016.63 1016.69 1016.78 1016.89 1017.03 1017.16 1017.26 1017.30 1017.26
1013.15 1013.91 1014.62 1015.16 1015.50 1015.60 1015.48 1015.22 1014.90 1014.64 1014.50 1014.53 1014.73 1015.05 1015.44 1015.81 1016.10 1016.27 1016.31 1016.25 1016.14 1016.03 1015.96 1015.94 1015.99 1016.07 1016.16 1016.24 1016.28 1016.28 1016.26 1016.24 1016.24 1016.27 1016.34 1016.43 1016.54 1016.64 1016.73 1016.80 1016.86 1016.93 1017.02 1017.12 1017.24 1017.34 1017.42 1017.43 1017.38
1013.66 1014.33 1014.92 1015.35 1015.57 1015.59 1015.44 1015.20 1014.94 1014.76 1014.72 1014.84 1015.11 1015.48 1015.87 1016.21 1016.45 1016.56 1016.54 1016.43 1016.29 1016.17 1016.10 1016.11 1016.18 1016.29 1016.41 1016.49 1016.53 1016.51 1016.47 1016.41 1016.38 1016.38 1016.43 1016.52 1016.62 1016.74 1016.84 1016.92 1016.99 1017.05 1017.12 1017.20 1017.28 1017.36 1017.40 1017.40 1017.33
1014.07 1014.64 1015.11 1015.43 1015.57 1015.54 1015.38 1015.18 1015.00 1014.92 1014.99 1015.20 1015.53 1015.93 1016.32 1016.63 1016.81 1016.85 1016.76 1016.60 1016.42 1016.27 1016.20 1016.22 1016.31 1016.44 1016.57 1016.66 1016.70 1016.67 1016.60 1016.52 1016.46 1016.43 1016.46 1016.54 1016.64 1016.75 1016.86 1016.94 1017.00 1017.05 1017.09 1017.13 1017.17 1017.21 1017.22 1017.20 1017.14
1014.38 1014.86 1015.23 1015.46 1015.53 1015.48 1015.35 1015.21 1015.11 1015.13 1015.28 1015.57 1015.95 1016.35 1016.72 1016.99 1017.11 1017.08 1016.94 1016.72 1016.50 1016.34 1016.26 1016.28 1016.38 1016.52 1016.66 1016.76 1016.80 1016.77 1016.68 1016.58 1016.50 1016.45 1016.46 1016.52 1016.61 1016.72 1016.81 1016.89 1016.93 1016.95 1016.95 1016.95 1016.95 1016.94 1016.93 1016.90 1016.85
1014.62 1015.02 1015.31 1015.48 1015.53 1015.48 1015.39 1015.31 1015.29 1015.38 1015.60 1015.92 1016.31 1016.70 1017.03 1017.25 1017.31 1017.22 1017.03 1016.77 1016.53 1016.34 1016.26 1016.28 1016.40 1016.55 1016.71 1016.82 1016.87 1016.84 1016.76 1016.64 1016.54 1016.48 1016.46 1016.50 1016.58 1016.67 1016.75 1016.80 1016.82 1016.81 1016.77 1016.73 1016.69 1016.65 1016.62 1016.59 1016.56
1014.84 1015.16 1015.40 1015.54 1015.59 1015.57 1015.52 1015.50 1015.53 1015.67 1015.91 1016.23 1016.60 1016.95 1017.22 1017.37 1017.38 1017.25 1017.02 1016.74 1016.48 1016.30 1016.22 1016.26 1016.38 1016.56 1016.74 1016.87 1016.94 1016.93 1016.85 1016.74 1016.63 1016.54 1016.51 1016.52 1016.57 1016.63 1016.68 1016.72 1016.71 1016.67 1016.61 1016.54 1016.47 1016.41 1016.38 1016.36 1016.36
1015.06 1015.34 1015.55 1015.68 1015.74 1015.76 1015.75 1015.77 1015.83 1015.98 1016.20 1016.48 1016.78 1017.06 1017.27 1017.36 1017.32 1017.16 1016.92 1016.65 1016.40 1016.23 1016.17 1016.22 1016.37 1016.57 1016.78 1016.94 1017.03 1017.05 1016.99 1016.88 1016.77 1016.67 1016.60 1016.58 1016.60 1016.63 1016.66 1016.66 1016.64 1016.59 1016.51 1016.43 1016.36 1016.31 1016.28 1016.29 1016.32
1015.33 1015.58 1015.77 1015.90 1015.98 1016.03 1016.05 1016.09 1016.15 1016.27 1016.44 1016.65 1016.87 1017.07 1017.20 1017.24 1017.17 1017.00 1016.77 1016.53 1016.31 1016.17 1016.14 1016.22 1016.39 1016.62 1016.85 1017.05 1017.18 1017.22 1017.19 1017.10 1016.98 1016.86 1016.77 1016.71 1016.68 1016.68 1016.67 1016.66 1016.63 1016.58 1016.51 1016.45 1016.40 1016.37 1016.38 1016.42 1016.50
1015.65 1015.87 1016.05 1016.18 1016.28 1016.34 1016.38 1016.41 1016.45 1016.52 1016.61 1016.73 1016.86 1016.98 1017.05 1017.06 1016.98 1016.84 1016.65 1016.44 1016.28 1016.18 1016.18 1016.28 1016.47 1016.72 1016.98 1017.21 1017.37 1017.45 1017.44 1017.37 1017.25 1017.11 1016.99 1016.89 1016.82 1016.77 1016.74 1016.72 1016.68 1016.65 1016.61 1016.58 1016.57 1016.59 1016.65 1016.74 1016.86
1016.00 1016.19 1016.35 1016.49 1016.59 1016.66 1016.70 1016.71 1016.70 1016.70 1016.72 1016.75 1016.80 1016.85 1016.88 1016.88 1016.83 1016.73 1016.60 1016.46 1016.34 1016.28 1016.31 1016.43 1016.63 1016.89 1017.16 1017.41 1017.60 1017.72 1017.74 1017.68 1017.57 1017.42 1017.26 1017.12 1017.01 1016.92 1016.86 1016.82 1016.80 1016.78 1016.78 1016.79 1016.84 1016.92 1017.04 1017.19 1017.36
1016.35 1016.51 1016.65 1016.78 1016.88 1016.94 1016.96 1016.94 1016.88 1016.81 1016.75 1016.70 1016.69 1016.70 1016.73 1016.75 1016.75 1016.72 1016.66 1016.59 1016.54 1016.52 1016.56 1016.67 1016.87 1017.11 1017.39 1017.65 1017.86 1018.01 1018.06 1018.03 1017.92 1017.76 1017.58 1017.40 1017.24 1017.12 1017.03 1016.98 1016.95 1016.96 1017.00 1017.06 1017.16 1017.30 1017.47 1017.67 1017.89
1016.66 1016.79 1016.91 1017.02 1017.11 1017.16 1017.15 1017.09 1016.98 1016.85 1016.72 1016.62 1016.57 1016.57 1016.62 1016.69 1016.77 1016.83 1016.86 1016.87 1016.86 1016.86 1016.90 1017.00 1017.16 1017.38 1017.64 1017.90 1018.13 1018.30 1018.39 1018.38 1018.29 1018.13 1017.93 1017.72 1017.53 1017.37 1017.25 1017.18 1017.16 1017.18 1017.24 1017.34 1017.48 1017.66 1017.88 1018.12 1018.38
1016.89 1016.99 1017.10 1017.20 1017.28 1017.31 1017.27 1017.17 1017.01 1016.81 1016.63 1016.49 1016.42 1016.44 1016.54 1016.69 1016.86 1017.02 1017.15 1017.23 1017.28 1017.30 1017.32 1017.38 1017.50 1017.67 1017.90 1018.15 1018.38 1018.58 1018.70 1018.72 1018.66 1018.51 1018.31 1018.09 1017.87 1017.68 1017.53 1017.44 1017.40 1017.42 1017.49 1017.61 1017.77 1017.97 1018.21 1018.48 1018.75
1017.03 1017.12 1017.22 1017.32 1017.38 1017.40 1017.33 1017.18 1016.97 1016.72 1016.49 1016.32 1016.25 1016.30 1016.46 1016.70 1016.98 1017.25 1017.48 1017.64 1017.72 1017.75 1017.76 1017.77 1017.83 1017.95 1018.14 1018.37 1018.60 1018.82 1018.97 1019.04 1019.02 1018.90 1018.71 1018.48 1018.25 1018.03 1017.86 1017.75 1017.69 1017.70 1017.75 1017.86 1018.01 1018.21 1018.44 1018.70 1018.98
1017.08 1017.16 1017.27 1017.38 1017.45 1017.44 1017.34 1017.15 1016.87 1016.56 1016.28 1016.08 1016.01 1016.09 1016.32 1016.65 1017.04 1017.42 1017.75 1017.98 1018.12 1018.16 1018.15 1018.12 1018.13 1018.20 1018.34 1018.55 1018.79 1019.03 1019.22 1019.33 1019.35 1019.26 1019.10 1018.88 1018.65 1018.42 1018.23 1018.09 1018.01 1017.99 1018.03 1018.10 1018.22 1018.39 1018.59 1018.82 1019.07
1017.04 1017.15 1017.28 1017.41 1017.49 1017.47 1017.34 1017.08 1016.74 1016.36 1016.01 1015.77 1015.69 1015.78 1016.06 1016.47 1016.96 1017.45 1017.88 1018.20 1018.39 1018.46 1018.44 1018.40 1018.36 1018.39 1018.50 1018.69 1018.93 1019.19 1019.41 1019.57 1019.63 1019.59 1019.46 1019.27 1019.04 1018.81 1018.61 1018.46 1018.36 1018.31 1018.31 1018.35 1018.43 1018.53 1018.68 1018.86 1019.08
1016.95 1017.10 1017.28 1017.44 1017.53 1017.50 1017.33 1017.01 1016.58 1016.11 1015.68 1015.37 1015.25 1015.34 1015.65 1016.12 1016.70 1017.29 1017.82 1018.23 1018.49 1018.61 1018.62 1018.57 1018.53 1018.53 1018.62 1018.80 1019.05 1019.32 1019.57 1019.77 1019.87 1019.86 1019.77 1019.60 1019.39 1019.17 1018.98 1018.82 1018.71 1018.65 1018.62 1018.62 1018.64 1018.69 1018.78 1018.89 1019.05
1016.84 1017.06 1017.29 1017.49 1017.60 1017.55 1017.32 1016.92 1016.40 1015.83 1015.30 1014.90 1014.72 1014.79 1015.10 1015.61 1016.25 1016.93 1017.56 1018.07 1018.41 1018.60 1018.66 1018.65 1018.62 1018.63 1018.72 1018.90 1019.14 1019.42 1019.70 1019.91 1020.04 1020.07 1020.00 1019.86 1019.67 1019.48 1019.30 1019.16 1019.05 1018.99 1018.95 1018.92 1018.91 1018.90 1018.92 1018.97 1019.07
1016.76 1017.03 1017.33 1017.56 1017.67 1017.60 1017.32 1016.84 1016.22 1015.53 1014.89 1014.40 1014.14 1014.15 1014.44 1014.97 1015.66 1016.41 1017.12 1017.73 1018.17 1018.45 1018.59 1018.64 1018.66 1018.70 1018.80 1018.99 1019.24 1019.52 1019.80 1020.02 1020.16 1020.20 1020.15 1020.03 1019.88 1019.71 1019.56 1019.45 1019.37 1019.32 1019.29 1019.26 1019.22 1019.18 1019.15 1019.14 1019.18
1016.71 1017.04 1017.38 1017.65 1017.76 1017.66 1017.32 1016.76 1016.04 1015.25 1014.51 1013.92 1013.57 1013.52 1013.77 1014.28 1014.99 1015.79 1016.57 1017.27 1017.81 1018.20 1018.43 1018.57 1018.65 1018.74 1018.88 1019.08 1019.33 1019.61 1019.88 1020.10 1020.24 1020.29 1020.25 1020.15 1020.01 1019.88 1019.77 1019.70 1019.66 1019.65 1019.64 1019.63 1019.60 1019.54 1019.48 1019.42 1019.40
1016.70 1017.08 1017.44 1017.71 1017.81 1017.68 1017.29 1016.67 1015.88 1015.01 1014.18 1013.51 1013.08 1012.96 1013.16 1013.64 1014.34 1015.16 1015.99 1016.75 1017.39 1017.87 1018.21 1018.44 1018.61 1018.77 1018.95 1019.18 1019.44 1019.71 1019.97 1020.17 1020.30 1020.34 1020.31 1020.22 1020.12 1020.02 1019.95 1019.93 1019.94 1019.98 1020.01 1020.03 1020.02 1019.97 1019.89 1019.81 1019.75
1016.71 1017.11 1017.48 1017.73 1017.81 1017.64 1017.22 1016.56 1015.73 1014.81 1013.93 1013.21 1012.72 1012.54 1012.69 1013.12 1013.79 1014.59 1015.43 1016.24 1016.94 1017.51 1017.94 1018.27 1018.53 1018.76 1019.00 1019.26 1019.54 1019.81 1020.06 1020.25 1020.36 1020.40 1020.38 1020.30 1020.22 1020.16 1020.14 1020.16 1020.22 1020.31 1020.39 1020.45 1020.47 1020.44 1020.37 1020.27 1020.19
1016.73 1017.11 1017.44 1017.66 1017.69 1017.49 1017.05 1016.38 1015.55 1014.64 1013.77 1013.03 1012.52 1012.30 1012.39 1012.76 1013.37 1014.13 1014.95 1015.76 1016.49 1017.11 1017.62 1018.04 1018.38 1018.69 1019.00 1019.30 1019.60 1019.89 1020.14 1020.33 1020.45 1020.49 1020.48 1020.43 1020.38 1020.35 1020.36 1020.42 1020.53 1020.66 1020.78 1020.88 1020.93 1020.92 1020.86 1020.78 1020.68
1016.70 1017.03 1017.30 1017.45 1017.43 1017.20 1016.75 1016.11 1015.32 1014.47 1013.64 1012.94 1012.44 1012.21 1012.25 1012.56 1013.09 1013.78 1014.54 1015.32 1016.04 1016.69 1017.25 1017.74 1018.16 1018.55 1018.92 1019.27 1019.62 1019.93 1020.20 1020.41 1020.54 1020.61 1020.62 1020.61 1020.59 1020.59 1020.64 1020.73 1020.87 1021.02 1021.17 1021.29 1021.36 1021.37 1021.34 1021.26 1021.18
Thickness
5800 5803 5804 5796 5785 5775 5763 5765 5772 5769 5768 5772 5775 5772 5768 5762 5758 5750 5763 5772 5773 5772 5770 5766 5764 5763 5762 5760 5759 5759 5757 5756 5755 5753 5751 5750 5748 5747 5746 5745 5744 5743 5742 5742 5742 5742 5742 5743 5743
5802 5802 5797 5790 5776 5762 5757 5764 5765 5768 5770 5774 5773 5771 5767 5760 5764 5763 5765 5768 5770 5769 5767 5764 5760 5760 5759 5757 5756 5756 5755 5753 5751 5750 5748 5747 5745 5743 5742 5741 5740 5739 5739 5738 5738 5739 5739 5739 5740
5800 5799 5789 5781 5770 5761 5757 5764 5765 5769 5773 5772 5767 5767 5763 5757 5761 5762 5764 5767 5767 5766 5763 5760 5758 5756 5756 5755 5754 5753 5752 5750 5748 5747 5745 5743 5742 5741 5739 5738 5737 5736 5735 5735 5735 5735 5735 5736 5737
5796 5791 5785 5774 5760 5762 5764 5766 5768 5765 5768 5771 5768 5759 5759 5759 5761 5762 5764 5765 5764 5763 5760 5757 5755 5754 5753 5752 5751 5750 5749 5747 5745 5744 5742 5741 5739 5738 5736 5735 5734 5733 5732 5731 5732 5732 5732 5733 5734
5793 5783 5771 5761 5757 5761 5767 5769 5768 5764 5763 5765 5765 5754 5749 5756 5761 5762 5762 5762 5761 5760 5758 5755 5751 5751 5750 5749 5748 5747 5746 5745 5743 5741 5739 5738 5736 5735 5733 5732 5731 5729 5729 5728 5728 5729 5729 5730 5731
5781 5777 5762 5754 5753 5758 5763 5767 5766 5762 5760 5762 5760 5752 5745 5754 5756 5757 5759 5758 5758 5757 5755 5752 5748 5747 5747 5746 5745 5744 5743 5742 5740 5739 5737 5735 5734 5732 5731 5729 5728 5727 5726 5726 5725 5726 5726 5727 5728
5773 5768 5758 5755 5750 5752 5757 5764 5762 5759 5756 5757 5761 5749 5745 5750 5754 5756 5756 5755 5755 5753 5752 5751 5749 5747 5744 5744 5743 5742 5741 5740 5738 5736 5735 5733 5731 5730 5728 5727 5725 5724 5724 5723 5723 5723 5723 5724 5725
5776 5768 5755 5754 5749 5748 5757 5759 5760 5759 5753 5760 5760 5748 5743 5748 5752 5753 5752 5752 5752 5751 5750 5749 5748 5747 5746 5744 5741 5740 5739 5737 5736 5734 5732 5731 5730 5728 5726 5725 5723 5722 5721 5721 5720 5720 5721 5721 5722
5775 5761 5750 5750 5750 5749 5756 5754 5755 5760 5756 5755 5756 5755 5752 5751 5750 5748 5747 5748 5747 5747 5748 5747 5747 5746 5745 5744 5740 5739 5738 5736 5735 5734 5731 5731 5732 5730 5727 5723 5720 5719 5719 5718 5718 5718 5718 5719 5720
5766 5752 5749 5755 5759 5754 5753 5753 5752 5751 5747 5745 5747 5748 5749 5747 5746 5744 5743 5742 5743 5744 5746 5747 5746 5745 5744 5743 5741 5740 5740 5737 5736 5734 5732 5731 5730 5727 5725 5720 5718 5717 5717 5716 5716 5716 5717 5719 5722
5760 5750 5751 5755 5758 5757 5751 5750 5753 5747 5740 5743 5741 5741 5743 5742 5741 5741 5741 5742 5742 5743 5743 5745 5745 5744 5743 5742 5741 5740 5738 5736 5735 5733 5731 5729 5728 5727 5725 5723 5720 5718 5717 5718 5716 5718 5720 5721 5721
5752 5749 5753 5752 5754 5752 5749 5748 5747 5746 5744 5749 5747 5744 5740 5738 5738 5739 5740 5740 5740 5741 5741 5742 5743 5743 5742 5741 5740 5739 5738 5736 5734 5732 5731 5729 5727 5726 5724 5722 5720 5718 5717 5716 5718 5717 5719 5720 5720
5747 5745 5748 5751 5751 5750 5747 5744 5742 5740 5745 5747 5744 5740 5738 5738 5737 5739 5741 5740 5740 5738 5739 5740 5741 5742 5741 5739 5738 5739 5736 5736 5733 5729 5729 5728 5727 5725 5723 5721 5717 5717 5716 5716 5715 5717 5716 5717 5718
5745 5745 5745 5746 5746 5745 5740 5738 5738 5736 5742 5740 5738 5736 5736 5735 5736 5736 5737 5738 5739 5738 5739 5739 5739 5739 5739 5739 5739 5737 5735 5733 5732 5729 5728 5727 5725 5723 5722 5720 5717 5716 5715 5714 5714 5715 5714 5714 5714
5746 5739 5737 5739 5741 5740 5738 5728 5731 5736 5739 5735 5734 5734 5734 5734 5734 5735 5736 5737 5739 5739 5739 5738 5738 5738 5738 5738 5736 5735 5734 5733 5731 5728 5728 5726 5724 5723 5721 5720 5717 5715 5714 5713 5712 5713 5713 5711 5711
5739 5733 5724 5730 5735 5736 5731 5717 5728 5735 5734 5731 5732 5732 5730 5731 5733 5736 5737 5738 5739 5739 5739 5738 5737 5737 5736 5735 5733 5733 5732 5731 5729 5727 5726 5725 5723 5721 5719 5717 5716 5714 5713 5712 5711 5711 5710 5709 5709
5727 5721 5720 5723 5732 5732 5728 5719 5726 5732 5731 5728 5730 5732 5730 5730 5733 5735 5737 5737 5738 5739 5738 5737 5736 5735 5734 5733 5731 5731 5730 5728 5727 5726 5724 5723 5721 5720 5719 5716 5714 5714 5713 5712 5712 5710 5710 5707 5706
5718 5720 5718 5718 5725 5726 5723 5722 5725 5728 5729 5728 5729 5731 5730 5730 5732 5735 5736 5736 5736 5736 5737 5736 5734 5734 5732 5731 5732 5729 5728 5727 5725 5723 5721 5720 5719 5718 5718 5716 5715 5714 5713 5711 5710 5707 5707 5707 5707
5726 5721 5716 5718 5724 5721 5719 5721 5725 5727 5727 5727 5728 5729 5730 5731 5734 5735 5733 5733 5733 5733 5734 5734 5733 5732 5731 5730 5730 5728 5726 5725 5724 5721 5719 5718 5718 5717 5716 5717 5715 5713 5712 5711 5711 5708 5706 5706 5708
5721 5716 5714 5715 5720 5719 5717 5719 5726 5727 5727 5729 5729 5730 5731 5730 5730 5730 5731 5732 5732 5732 5733 5734 5733 5732 5731 5730 5730 5728 5725 5725 5722 5719 5718 5718 5717 5716 5716 5715 5715 5713 5711 5710 5709 5707 5707 5706 5707
5715 5714 5712 5710 5713 5717 5714 5712 5719 5725 5729 5730 5731 5733 5734 5731 5730 5730 5730 5730 5730 5730 5732 5733 5733 5731 5730 5728 5728 5726 5724 5723 5721 5719 5717 5716 5715 5714 5714 5713 5714 5713 5713 5710 5709 5709 5707 5706 5707
5707 5715 5714 5709 5707 5705 5708 5701 5717 5724 5723 5725 5728 5731 5733 5733 5733 5731 5730 5729 5730 5731 5733 5734 5732 5731 5730 5728 5727 5726 5722 5721 5719 5719 5717 5716 5714 5713 5712 5712 5712 5713 5712 5710 5711 5710 5709 5707 5707
5711 5714 5712 5709 5706 5703 5707 5702 5716 5722 5719 5725 5731 5733 5734 5734 5734 5732 5731 5731 5731 5731 5731 5731 5731 5730 5728 5728 5725 5724 5723 5721 5721 5719 5717 5717 5714 5713 5712 5712 5712 5712 5711 5711 5710 5709 5710 5710 5709
5710 5708 5706 5705 5702 5692 5705 5701 5708 5722 5725 5730 5734 5736 5736 5735 5734 5733 5732 5731 5730 5730 5728 5728 5728 5727 5726 5725 5726 5725 5722 5721 5719 5718 5717 5716 5715 5713 5712 5711 5711 5712 5711 5710 5710 5709 5709 5709 5708
5707 5699 5688 5686 5685 5692 5706 5700 5711 5730 5734 5735 5736 5739 5739 5738 5735 5733 5730 5729 5729 5728 5728 5728 5727 5726 5726 5726 5726 5725 5724 5723 5721 5719 5717 5716 5715 5714 5712 5712 5711 5711 5710 5709 5709 5709 5709 5709 5708
5703 5702 5688 5680 5683 5694 5699 5699 5719 5733 5737 5739 5741 5742 5742 5739 5738 5735 5734 5732 5731 5729 5728 5728 5727 5726 5726 5726 5726 5727 5725 5723 5722 5720 5719 5717 5716 5714 5712 5711 5711 5709 5709 5709 5708 5709 5708 5709 5708
5697 5699 5705 5695 5691 5688 5700 5710 5722 5732 5733 5735 5738 5739 5740 5740 5738 5736 5736 5734 5733 5731 5729 5729 5728 5727 5726 5726 5726 5726 5725 5723 5721 5720 5719 5717 5716 5714 5712 5711 5710 5708 5708 5708 5708 5708 5707 5706 5706
5703 5703 5695 5688 5678 5679 5693 5702 5711 5722 5726 5730 5733 5735 5738 5739 5738 5737 5736 5735 5735 5733 5731 5730 5730 5729 5727 5726 5726 5725 5724 5723 5720 5720 5718 5717 5716 5714 5712 5712 5711 5709 5708 5707 5706 5706 5704 5705 5702
5691 5692 5694 5693 5691 5681 5682 5699 5723 5724 5728 5730 5733 5737 5738 5738 5738 5737 5737 5737 5736 5733 5731 5729 5729 5728 5727 5726 5726 5724 5723 5721 5720 5718 5717 5716 5715 5714 5712 5711 5711 5710 5708 5707 5705 5705 5704 5704 5703
5700 5698 5695 5684 5685 5688 5687 5700 5730 5729 5731 5732 5734 5737 5739 5739 5739 5737 5736 5736 5734 5733 5731 5730 5730 5728 5727 5727 5726 5724 5722 5721 5720 5718 5716 5716 5716 5714 5713 5711 5710 5709 5707 5706 5704 5702 5701 5702 5701